Regional Weather Roundup
Issued by NWS Cleveland, OH

Home | Current Version | Previous Version | Text Only | Print | Product List | Glossary Off
Versions: 1 2 3 4 5 6 7 8 9 10 11 12 13 14 15 16 17 18 19 20 21 22 23 24 25 26 27 28 29 30 31 32 33 34 35 36 37 38 39 40 41 42 43 44 45 46 47 48 49 50

000
ASUS41 KCLE 080412
RWRCLE
OHIO REGIONAL WEATHER ROUNDUP
NATIONAL WEATHER SERVICE WILMINGTON, OH
1100 PM EST SUN FEB 07 2016

NOTE: "FAIR" INDICATES FEW OR NO CLOUDS BELOW 12,000 FEET WITH NO
SIGNIFICANT WEATHER AND/OR OBSTRUCTIONS TO VISIBILITY.

OHZ001>008-015>018-024>027-034-035-043-044-080500-
   NORTHWEST OHIO

CITY           SKY/WX    TMP DP  RH WIND       PRES   REMARKS
DEFIANCE       FAIR      41  32  70 W6        29.74F
FINDLAY        CLOUDY    46  31  55 SW9       29.74F
TOLEDO EXPRESS CLOUDY    44  31  60 SW6       29.73F
TOLEDO EXEC    CLOUDY    44  30  57 SW8       29.75F
LIMA           CLOUDY    44  30  57 SW10      29.75S
$$

OHZ009>014-019>023-028>033-038-089-080500-
   NORTHEAST OHIO

CITY           SKY/WX    TMP DP  RH WIND       PRES   REMARKS
CLE-HOPKINS    CLOUDY    46  23  40 S12       29.79F
CLE-LAKEFRONT  CLOUDY    48  23  37 S10       29.77F
CUY CO. ARPT   CLOUDY    46  25  42 S14       29.79F
LORAIN-ELYRIA  CLOUDY    44  24  45 S10       29.76F
ASHTABULA      MOCLDY    41  26  55 S9        29.81F
AKRON-CANTON   CLOUDY    40  24  53 S9        29.80F
WOOSTER        CLOUDY    40  25  55 S6        29.79F
MANSFIELD      CLOUDY    43  23  45 S12       29.77F
YOUNGSTOWN     MOCLDY    41  23  48 S8        29.81F
$$

OHZ042-051>053-060>062-070>072-077>081-080500-
  SOUTHWEST OHIO

CITY           SKY/WX    TMP DP  RH WIND       PRES   REMARKS
CINC-COVINGTON CLOUDY    45  22  40 S9        29.79F
CINC-LUNKEN    CLOUDY    45  23  42 S10       29.81F
HAMILTON       CLOUDY    47  23  38 CALM      29.79F
DAYTON         CLOUDY    45  24  43 SW14G21   29.78F
WRIGHT-PAT AFB FAIR      46  22  37 S10       29.77F
DAYTON GENERAL CLOUDY    44  23  43 S8        29.77F
WILMINGTON     CLOUDY    41  26  55 S9        29.79F
$$

OHZ036-037-039>041-045>050-054>059-063>069-073>076-082>088-080500-
  CENTRAL AND SOUTHEAST OHIO

CITY           SKY/WX    TMP DP  RH WIND       PRES   REMARKS
COLUMBUS       CLOUDY    42  20  41 S7        29.80F
OSU AIRPORT    CLOUDY    44  22  41 S10       29.79F
BOLTON FIELD   CLOUDY    42  25  51 S8        29.80F
RICKENBACK AFB MOCLDY    42  24  49 S9        29.80F
NEWARK         FAIR      42  24  49 S6        29.80F
MARION         CLOUDY    43  24  47 SW12      29.78F
LANCASTER      FAIR      41  23  48 S6        29.81F
ZANESVILLE     FAIR      36  23  59 SE5       29.82F
NEW PHILLY     FAIR      36  26  67 SE5       29.82F
$$



USA.gov is the U.S. government's official web portal to all federal, state and local government web resources and services.